Time,TemperatureF,DewpointF,PressureIn,WindDirection,WindDirectionDegrees,WindSpeedMPH,WindSpeedGustMPH,Humidity,HourlyPrecipIn,Conditions,Clouds,dailyrainin,SoftwareType,DateUTC
2013-04-07 00:01:00,59.5,46.1,29.85,South,180,4.0,9.0,61,0.00,,CLR,0.00,VWS V14.01,2013-04-07 05:01:00,
2013-04-07 00:11:00,59.0,46.0,29.85,South,169,5.0,11.0,62,0.00,,CLR,0.00,VWS V14.01,2013-04-07 05:11:00,
2013-04-07 00:16:00,59.0,46.0,29.85,South,174,6.0,11.0,62,0.00,,CLR,0.00,VWS V14.01,2013-04-07 05:16:00,
2013-04-07 00:21:00,59.2,46.2,29.85,SSE,165,4.0,9.0,62,0.00,,CLR,0.00,VWS V14.01,2013-04-07 05:21:00,
2013-04-07 00:26:00,59.5,46.1,29.85,South,171,5.0,11.0,61,0.00,,CLR,0.00,VWS V14.01,2013-04-07 05:26:00,
2013-04-07 00:31:00,59.9,46.0,29.85,South,180,6.0,11.0,60,0.00,,CLR,0.00,VWS V14.01,2013-04-07 05:31:00,
2013-04-07 00:36:00,60.1,46.2,29.85,SSE,163,5.0,10.0,60,0.00,,BKN080,0.00,VWS V14.01,2013-04-07 05:36:00,
2013-04-07 00:45:00,60.1,46.2,29.85,SSE,168,6.0,10.0,60,0.00,,BKN080,0.00,VWS V14.01,2013-04-07 05:45:00,
2013-04-07 00:51:00,60.1,46.6,29.85,South,174,8.0,9.0,61,0.00,,BKN080,0.00,VWS V14.01,2013-04-07 05:51:00,
2013-04-07 00:56:00,59.9,46.4,29.85,South,182,5.0,9.0,61,0.00,,BKN080,0.00,VWS V14.01,2013-04-07 05:56:00,
2013-04-07 01:01:00,59.9,46.4,29.85,South,171,3.0,10.0,61,0.00,,BKN080,0.00,VWS V14.01,2013-04-07 06:01:00,
2013-04-07 01:11:00,60.1,46.6,29.85,SSW,195,6.0,9.0,61,0.00,,BKN080,0.00,VWS V14.01,2013-04-07 06:11:00,
2013-04-07 01:16:00,60.1,46.6,29.85,SSW,207,2.0,10.0,61,0.00,,BKN080,0.00,VWS V14.01,2013-04-07 06:16:00,
2013-04-07 01:21:00,60.1,46.6,29.85,South,179,8.0,9.0,61,0.00,,BKN080,0.00,VWS V14.01,2013-04-07 06:21:00,
2013-04-07 01:26:00,60.2,46.3,29.85,South,177,8.0,10.0,60,0.00,,BKN080,0.00,VWS V14.01,2013-04-07 06:26:00,
2013-04-07 01:31:00,60.2,46.7,29.85,South,183,4.0,10.0,61,0.00,,BKN080,0.00,VWS V14.01,2013-04-07 06:31:00,
2013-04-07 01:36:00,60.2,46.7,29.85,South,176,5.0,9.0,61,0.00,,BKN080,0.00,VWS V14.01,2013-04-07 06:36:00,
2013-04-07 01:41:00,60.4,46.5,29.85,South,181,6.0,10.0,60,0.00,,BKN080,0.00,VWS V14.01,2013-04-07 06:41:00,
2013-04-07 01:46:00,60.5,46.6,29.85,SSE,157,6.0,8.0,60,0.00,,BKN080,0.00,VWS V14.01,2013-04-07 06:46:00,
2013-04-07 01:51:00,60.9,46.5,29.85,South,186,3.0,8.0,59,0.00,,BKN080,0.00,VWS V14.01,2013-04-07 06:51:00,
2013-04-07 02:01:00,61.5,46.6,29.85,South,177,2.0,7.0,58,0.00,,BKN080,0.00,VWS V14.01,2013-04-07 07:01:00,
2013-04-07 02:06:00,61.6,46.7,29.85,South,176,6.0,9.0,58,0.00,,BKN080,0.00,VWS V14.01,2013-04-07 07:06:00,
2013-04-07 02:16:00,61.3,46.9,29.84,SSW,198,2.0,6.0,59,0.00,,BKN080,0.00,VWS V14.01,2013-04-07 07:16:00,
2013-04-07 02:21:00,61.3,46.9,29.84,SSW,213,3.0,7.0,59,0.00,,BKN080,0.00,VWS V14.01,2013-04-07 07:21:00,
2013-04-07 02:26:00,61.3,46.9,29.84,SSW,195,2.0,6.0,59,0.00,,BKN080,0.00,VWS V14.01,2013-04-07 07:26:00,
2013-04-07 02:31:00,61.3,46.9,29.84,SSW,202,2.0,5.0,59,0.00,,BKN080,0.00,VWS V14.01,2013-04-07 07:31:00,
2013-04-07 02:41:00,61.0,47.0,29.84,WSW,238,0.0,4.0,60,0.00,,OVC080,0.00,VWS V14.01,2013-04-07 07:41:00,
2013-04-07 02:56:00,60.9,46.9,29.84,SSW,194,3.0,7.0,60,0.00,,OVC080,0.00,VWS V14.01,2013-04-07 07:56:00,
2013-04-07 03:06:00,60.9,46.9,29.84,South,187,4.0,7.0,60,0.00,,OVC080,0.00,VWS V14.01,2013-04-07 08:06:00,
2013-04-07 03:11:00,60.9,46.9,29.84,SW,229,3.0,8.0,60,0.00,,OVC080,0.00,VWS V14.01,2013-04-07 08:11:00,
2013-04-07 03:16:00,60.9,46.9,29.84,SSE,165,1.0,8.0,60,0.00,,OVC080,0.00,VWS V14.01,2013-04-07 08:16:00,
2013-04-07 03:26:00,60.9,47.4,29.84,WSW,239,2.0,7.0,61,0.00,,OVC080,0.00,VWS V14.01,2013-04-07 08:26:00,
2013-04-07 03:31:00,60.9,47.4,29.84,SSW,197,5.0,7.0,61,0.00,,OVC080,0.00,VWS V14.01,2013-04-07 08:31:00,
2013-04-07 03:36:00,60.9,47.4,29.84,South,186,3.0,8.0,61,0.00,,OVC080,0.00,VWS V14.01,2013-04-07 08:36:00,
2013-04-07 03:41:00,60.9,47.4,29.84,SSE,152,6.0,8.0,61,0.00,,OVC080,0.00,VWS V14.01,2013-04-07 08:41:00,
2013-04-07 03:51:00,60.9,47.8,29.84,SSW,211,3.0,7.0,62,0.00,,OVC080,0.00,VWS V14.01,2013-04-07 08:51:00,
2013-04-07 04:01:00,60.5,47.9,29.84,SSW,212,4.0,8.0,63,0.00,,OVC080,0.00,VWS V14.01,2013-04-07 09:01:00,
2013-04-07 04:06:00,60.4,48.2,29.84,South,187,7.0,8.0,64,0.00,,OVC080,0.00,VWS V14.01,2013-04-07 09:06:00,
2013-04-07 04:16:00,60.1,48.3,29.84,South,190,0.0,8.0,65,0.00,,OVC080,0.00,VWS V14.01,2013-04-07 09:16:00,
2013-04-07 04:21:00,59.9,48.1,29.84,SSE,159,6.0,8.0,65,0.00,,OVC080,0.00,VWS V14.01,2013-04-07 09:21:00,
2013-04-07 04:31:00,59.6,48.2,29.84,South,190,3.0,9.0,66,0.00,,OVC080,0.00,VWS V14.01,2013-04-07 09:31:00,
2013-04-07 04:36:00,59.6,48.6,29.84,South,177,4.0,9.0,67,0.00,,OVC080,0.00,VWS V14.01,2013-04-07 09:36:00,
2013-04-07 04:41:00,59.6,48.6,29.84,SSW,205,5.0,9.0,67,0.00,,OVC080,0.00,VWS V14.01,2013-04-07 09:41:00,
2013-04-07 04:51:00,59.5,48.5,29.85,South,171,3.0,8.0,67,0.00,,OVC080,0.00,VWS V14.01,2013-04-07 09:51:00,
2013-04-07 04:56:00,59.5,48.5,29.85,SSW,198,4.0,10.0,67,0.00,,OVC080,0.00,VWS V14.01,2013-04-07 09:56:00,
2013-04-07 05:06:00,59.3,48.8,29.85,South,170,6.0,10.0,68,0.00,,OVC080,0.00,VWS V14.01,2013-04-07 10:06:00,
2013-04-07 05:11:00,59.3,48.8,29.85,SSE,168,1.0,9.0,68,0.00,,OVC080,0.00,VWS V14.01,2013-04-07 10:11:00,
2013-04-07 05:16:00,59.3,48.8,29.85,SSE,163,6.0,10.0,68,0.00,,OVC080,0.00,VWS V14.01,2013-04-07 10:16:00,
2013-04-07 05:26:00,59.2,49.0,29.85,South,175,5.0,7.0,69,0.00,,OVC080,0.00,VWS V14.01,2013-04-07 10:26:00,
2013-04-07 05:31:00,59.2,49.0,29.85,South,173,2.0,7.0,69,0.00,,OVC080,0.00,VWS V14.01,2013-04-07 10:31:00,
2013-04-07 05:41:00,59.2,49.0,29.85,SSE,156,4.0,7.0,69,0.00,,OVC080,0.00,VWS V14.01,2013-04-07 10:41:00,
2013-04-07 05:51:00,59.0,49.2,29.86,South,178,5.0,7.0,70,0.00,,OVC080,0.00,VWS V14.01,2013-04-07 10:51:00,
2013-04-07 05:56:00,58.9,49.2,29.86,SSE,165,2.0,6.0,70,0.00,,OVC080,0.00,VWS V14.01,2013-04-07 10:56:00,
2013-04-07 06:06:00,58.7,49.3,29.86,South,171,2.0,8.0,71,0.00,,OVC080,0.00,VWS V14.01,2013-04-07 11:06:00,
2013-04-07 06:11:00,58.7,49.3,29.86,South,174,1.0,6.0,71,0.00,,OVC080,0.00,VWS V14.01,2013-04-07 11:11:00,
2013-04-07 06:20:00,58.7,49.3,29.86,South,186,4.0,7.0,71,0.00,,OVC080,0.00,VWS V14.01,2013-04-07 11:20:00,
2013-04-07 06:26:00,58.6,49.6,29.86,South,182,5.0,6.0,72,0.00,,OVC080,0.00,VWS V14.01,2013-04-07 11:26:00,
2013-04-07 06:31:00,58.6,49.6,29.87,South,172,5.0,8.0,72,0.00,,OVC080,0.00,VWS V14.01,2013-04-07 11:31:00,
2013-04-07 06:36:00,58.6,49.6,29.87,SSW,193,4.0,7.0,72,0.00,,OVC090,0.00,VWS V14.01,2013-04-07 11:36:00,
2013-04-07 06:46:00,58.4,49.8,29.88,South,175,1.0,10.0,73,0.00,,OVC090,0.00,VWS V14.01,2013-04-07 11:46:00,
2013-04-07 06:51:00,58.4,49.8,29.88,South,184,7.0,9.0,73,0.00,,OVC090,0.00,VWS V14.01,2013-04-07 11:51:00,
2013-04-07 07:01:00,58.4,49.8,29.88,South,171,4.0,9.0,73,0.00,,OVC090,0.00,VWS V14.01,2013-04-07 12:01:00,
2013-04-07 07:06:00,58.4,50.2,29.88,SSE,162,7.0,10.0,74,0.00,,OVC090,0.00,VWS V14.01,2013-04-07 12:06:00,
2013-04-07 07:16:00,58.6,50.3,29.88,SSW,196,3.0,8.0,74,0.00,,OVC090,0.00,VWS V14.01,2013-04-07 12:16:00,
2013-04-07 07:26:00,58.7,50.5,29.88,SW,223,4.0,9.0,74,0.00,,OVC090,0.00,VWS V14.01,2013-04-07 12:26:00,
2013-04-07 07:36:00,58.9,50.6,29.88,SSW,197,4.0,9.0,74,0.00,,OVC090,0.00,VWS V14.01,2013-04-07 12:36:00,
2013-04-07 07:41:00,58.9,50.6,29.88,SSE,166,2.0,8.0,74,0.00,,OVC090,0.00,VWS V14.01,2013-04-07 12:41:00,
2013-04-07 07:46:00,59.0,50.7,29.88,SSW,209,2.0,8.0,74,0.00,,OVC090,0.00,VWS V14.01,2013-04-07 12:46:00,
2013-04-07 07:56:00,58.9,51.0,29.88,South,184,5.0,7.0,75,0.00,,OVC090,0.00,VWS V14.01,2013-04-07 12:56:00,
2013-04-07 08:01:00,59.0,51.1,29.90,South,175,3.0,7.0,75,0.00,,OVC090,0.00,VWS V14.01,2013-04-07 13:01:00,
2013-04-07 08:11:00,59.5,51.2,29.90,SSE,164,1.0,7.0,74,0.00,,OVC090,0.00,VWS V14.01,2013-04-07 13:11:00,
2013-04-07 08:21:00,60.1,51.8,29.90,SW,227,2.0,9.0,74,0.00,,OVC090,0.00,VWS V14.01,2013-04-07 13:21:00,
2013-04-07 08:26:00,60.4,52.1,29.90,SW,227,5.0,9.0,74,0.00,,OVC090,0.00,VWS V14.01,2013-04-07 13:26:00,
2013-04-07 08:36:00,60.5,51.8,29.90,SW,219,4.0,8.0,73,0.00,,OVC085,0.00,VWS V14.01,2013-04-07 13:36:00,
2013-04-07 08:41:00,60.7,52.0,29.90,SSW,198,12.0,15.0,73,0.00,,OVC085,0.00,VWS V14.01,2013-04-07 13:41:00,
2013-04-07 08:46:00,60.9,52.2,29.90,SW,228,8.0,12.0,73,0.00,,OVC085,0.00,VWS V14.01,2013-04-07 13:46:00,
2013-04-07 08:51:00,61.0,51.9,29.90,South,178,6.0,11.0,72,0.00,,OVC085,0.00,VWS V14.01,2013-04-07 13:51:00,
2013-04-07 09:01:00,61.6,52.5,29.90,SSW,198,4.0,13.0,72,0.00,,OVC085,0.00,VWS V14.01,2013-04-07 14:01:00,
2013-04-07 09:06:00,61.8,52.3,29.90,SW,214,7.0,8.0,71,0.00,,OVC085,0.00,VWS V14.01,2013-04-07 14:06:00,
2013-04-07 09:11:00,62.3,52.8,29.90,SW,219,3.0,16.0,71,0.00,,OVC085,0.00,VWS V14.01,2013-04-07 14:11:00,
2013-04-07 09:16:00,62.4,52.9,29.90,SSE,166,3.0,13.0,71,0.00,,OVC085,0.00,VWS V14.01,2013-04-07 14:16:00,
2013-04-07 09:26:00,62.4,52.5,29.90,SSW,210,7.0,12.0,70,0.00,,OVC085,0.00,VWS V14.01,2013-04-07 14:26:00,
2013-04-07 09:36:00,62.4,52.9,29.90,SW,215,4.0,9.0,71,0.00,,OVC090,0.00,VWS V14.01,2013-04-07 14:36:00,
2013-04-07 09:46:00,62.9,53.4,29.90,South,186,2.0,11.0,71,0.00,,OVC090,0.00,VWS V14.01,2013-04-07 14:46:00,
2013-04-07 09:51:00,63.5,53.5,29.90,SSW,196,0.0,8.0,70,0.00,,OVC090,0.00,VWS V14.01,2013-04-07 14:51:00,
2013-04-07 09:56:00,63.5,53.2,29.90,SSE,157,5.0,11.0,69,0.00,,OVC090,0.00,VWS V14.01,2013-04-07 14:56:00,
2013-04-07 10:06:00,63.7,53.7,29.91,SSW,209,3.0,8.0,70,0.00,,OVC090,0.00,VWS V14.01,2013-04-07 15:06:00,
2013-04-07 10:16:00,64.5,54.1,29.91,SSE,165,3.0,12.0,69,0.00,,OVC090,0.00,VWS V14.01,2013-04-07 15:16:00,
2013-04-07 10:21:00,64.8,54.0,29.91,SW,235,5.0,11.0,68,0.00,,OVC090,0.00,VWS V14.01,2013-04-07 15:21:00,
2013-04-07 10:26:00,65.3,54.1,29.91,SSW,192,7.0,15.0,67,0.00,,OVC090,0.00,VWS V14.01,2013-04-07 15:26:00,
2013-04-07 10:36:00,65.3,54.5,29.90,South,171,1.0,10.0,68,0.00,,OVC090,0.00,VWS V14.01,2013-04-07 15:36:00,
2013-04-07 10:46:00,65.3,53.7,29.91,WSW,248,4.0,12.0,66,0.00,,OVC090,0.00,VWS V14.01,2013-04-07 15:46:00,
2013-04-07 10:51:00,65.2,54.0,29.91,SW,219,5.0,13.0,67,0.00,,OVC090,0.00,VWS V14.01,2013-04-07 15:51:00,
2013-04-07 10:56:00,64.7,53.9,29.91,SE,143,4.0,14.0,68,0.00,,OVC090,0.00,VWS V14.01,2013-04-07 15:56:00,
2013-04-07 11:01:00,65.0,54.2,29.91,SW,225,3.0,13.0,68,0.00,,OVC090,0.00,VWS V14.01,2013-04-07 16:01:00,
2013-04-07 11:16:00,64.7,53.9,29.92,SSW,194,3.0,12.0,68,0.00,,OVC090,0.00,VWS V14.01,2013-04-07 16:16:00,
2013-04-07 11:26:00,65.3,54.5,29.92,SSE,148,4.0,13.0,68,0.00,,OVC090,0.00,VWS V14.01,2013-04-07 16:26:00,
2013-04-07 11:36:00,65.6,54.8,29.91,SW,223,10.0,14.0,68,0.00,,OVC090,0.00,VWS V14.01,2013-04-07 16:36:00,
2013-04-07 11:41:00,65.8,55.0,29.91,WSW,248,5.0,13.0,68,0.00,,OVC090,0.00,VWS V14.01,2013-04-07 16:41:00,
2013-04-07 11:51:00,67.1,55.0,29.91,SSE,166,9.0,11.0,65,0.00,,OVC090,0.00,VWS V14.01,2013-04-07 16:51:00,
2013-04-07 11:56:00,67.6,55.8,29.91,SW,228,5.0,14.0,66,0.00,,OVC090,0.00,VWS V14.01,2013-04-07 16:56:00,
2013-04-07 12:01:00,67.6,55.0,29.91,SE,145,4.0,14.0,64,0.00,,OVC090,0.00,VWS V14.01,2013-04-07 17:01:00,
2013-04-07 12:11:00,68.3,55.2,29.91,SE,137,3.0,11.0,63,0.00,,OVC090,0.00,VWS V14.01,2013-04-07 17:11:00,
2013-04-07 12:16:00,67.8,55.2,29.91,SSW,209,7.0,14.0,64,0.00,,OVC090,0.00,VWS V14.01,2013-04-07 17:16:00,
2013-04-07 12:26:00,68.1,55.0,29.91,SW,229,7.0,15.0,63,0.00,,OVC090,0.00,VWS V14.01,2013-04-07 17:26:00,
2013-04-07 12:31:00,67.9,55.7,29.90,SSE,157,12.0,15.0,65,0.00,,OVC090,0.00,VWS V14.01,2013-04-07 17:31:00,
2013-04-07 12:36:00,67.8,55.6,29.90,SSW,194,5.0,14.0,65,0.00,,CLR,0.00,VWS V14.01,2013-04-07 17:36:00,
2013-04-07 12:46:00,68.9,55.8,29.89,SSE,149,8.0,16.0,63,0.00,,CLR,0.00,VWS V14.01,2013-04-07 17:46:00,
2013-04-07 12:51:00,68.9,55.8,29.89,SSE,155,10.0,17.0,63,0.00,,CLR,0.00,VWS V14.01,2013-04-07 17:51:00,
2013-04-07 13:01:00,69.8,56.2,29.89,South,178,4.0,13.0,62,0.00,,CLR,0.00,VWS V14.01,2013-04-07 18:01:00,
2013-04-07 13:06:00,70.1,55.6,29.89,South,176,1.0,11.0,60,0.00,,CLR,0.00,VWS V14.01,2013-04-07 18:06:00,
2013-04-07 13:11:00,70.4,56.3,29.89,WSW,240,5.0,10.0,61,0.00,,CLR,0.00,VWS V14.01,2013-04-07 18:11:00,
2013-04-07 13:16:00,70.3,55.8,29.88,SSE,167,11.0,15.0,60,0.00,,CLR,0.00,VWS V14.01,2013-04-07 18:16:00,
2013-04-07 13:21:00,69.9,55.8,29.88,South,173,7.0,17.0,61,0.00,,CLR,0.00,VWS V14.01,2013-04-07 18:21:00,
2013-04-07 13:31:00,70.3,55.8,29.88,South,183,8.0,15.0,60,0.00,,CLR,0.00,VWS V14.01,2013-04-07 18:31:00,
2013-04-07 13:41:00,69.9,55.4,29.88,South,174,15.0,17.0,60,0.00,,OVC080,0.00,VWS V14.01,2013-04-07 18:41:00,
2013-04-07 13:46:00,70.3,56.2,29.88,SSW,196,12.0,15.0,61,0.00,,OVC080,0.00,VWS V14.01,2013-04-07 18:46:00,
2013-04-07 13:51:00,70.8,56.7,29.88,WSW,257,0.0,12.0,61,0.00,,OVC080,0.00,VWS V14.01,2013-04-07 18:51:00,
2013-04-07 13:56:00,70.9,55.4,29.88,South,181,7.0,14.0,58,0.00,,OVC080,0.00,VWS V14.01,2013-04-07 18:56:00,
2013-04-07 14:06:00,71.5,56.0,29.88,South,173,8.0,14.0,58,0.00,,CLR,0.00,VWS V14.01,2013-04-07 19:06:00,
2013-04-07 14:11:00,71.3,56.7,29.88,SSW,211,7.0,15.0,60,0.00,,CLR,0.00,VWS V14.01,2013-04-07 19:11:00,
2013-04-07 14:16:00,71.6,56.5,29.87,South,169,6.0,16.0,59,0.00,,CLR,0.00,VWS V14.01,2013-04-07 19:16:00,
2013-04-07 14:21:00,71.6,56.5,29.87,SSE,163,9.0,13.0,59,0.00,,CLR,0.00,VWS V14.01,2013-04-07 19:21:00,
2013-04-07 14:31:00,71.5,56.0,29.87,South,174,8.0,14.0,58,0.00,,CLR,0.00,VWS V14.01,2013-04-07 19:31:00,
2013-04-07 14:41:00,71.3,56.2,29.87,SSW,197,3.0,12.0,59,0.00,,CLR,0.00,VWS V14.01,2013-04-07 19:41:00,
2013-04-07 14:46:00,70.9,56.8,29.86,South,169,8.0,13.0,61,0.00,,CLR,0.00,VWS V14.01,2013-04-07 19:46:00,
2013-04-07 14:51:00,71.6,57.0,29.86,SE,140,8.0,12.0,60,0.00,,CLR,0.00,VWS V14.01,2013-04-07 19:51:00,
2013-04-07 15:01:00,71.3,57.2,29.86,SSE,161,9.0,16.0,61,0.00,,CLR,0.00,VWS V14.01,2013-04-07 20:01:00,
2013-04-07 15:11:00,70.9,56.8,29.86,SSE,155,8.0,16.0,61,0.00,,CLR,0.00,VWS V14.01,2013-04-07 20:11:00,
2013-04-07 15:21:00,70.9,56.8,29.86,SSE,167,9.0,14.0,61,0.00,,CLR,0.00,VWS V14.01,2013-04-07 20:21:00,
2013-04-07 15:31:00,71.1,56.5,29.85,SSE,159,8.0,18.0,60,0.00,,CLR,0.00,VWS V14.01,2013-04-07 20:31:00,
2013-04-07 15:41:00,70.6,56.5,29.85,South,174,7.0,15.0,61,0.00,,BKN080,0.00,VWS V14.01,2013-04-07 20:41:00,
2013-04-07 15:51:00,70.8,56.7,29.85,South,174,9.0,17.0,61,0.00,,BKN080,0.00,VWS V14.01,2013-04-07 20:51:00,
2013-04-07 15:56:00,70.6,57.0,29.85,South,171,12.0,18.0,62,0.00,,BKN080,0.00,VWS V14.01,2013-04-07 20:56:00,
2013-04-07 16:01:00,70.4,56.8,29.85,SSE,147,10.0,17.0,62,0.00,,BKN080,0.00,VWS V14.01,2013-04-07 21:01:00,
2013-04-07 16:11:00,70.3,57.1,29.85,SSE,160,12.0,17.0,63,0.00,,BKN080,0.00,VWS V14.01,2013-04-07 21:11:00,
2013-04-07 16:21:00,69.8,56.7,29.85,SSE,158,10.0,16.0,63,0.00,,BKN080,0.00,VWS V14.01,2013-04-07 21:21:00,
2013-04-07 16:31:00,69.8,57.1,29.85,South,185,9.0,13.0,64,0.00,,BKN080,0.00,VWS V14.01,2013-04-07 21:31:00,
2013-04-07 16:36:00,69.6,56.5,29.85,South,169,13.0,18.0,63,0.00,,SCT085,0.00,VWS V14.01,2013-04-07 21:36:00,
2013-04-07 16:41:00,69.6,56.5,29.85,SSE,168,7.0,14.0,63,0.00,,SCT085,0.00,VWS V14.01,2013-04-07 21:41:00,
2013-04-07 16:51:00,69.9,56.3,29.86,SSE,159,12.0,19.0,62,0.00,,SCT085,0.00,VWS V14.01,2013-04-07 21:51:00,
2013-04-07 17:01:00,69.3,56.2,29.86,SSE,156,11.0,18.0,63,0.00,,SCT085,0.00,VWS V14.01,2013-04-07 22:01:00,
2013-04-07 17:06:00,69.3,56.6,29.86,SSE,168,6.0,15.0,64,0.00,,SCT085,0.00,VWS V14.01,2013-04-07 22:06:00,
2013-04-07 17:16:00,69.1,56.0,29.85,SE,139,10.0,18.0,63,0.00,,SCT085,0.00,VWS V14.01,2013-04-07 22:16:00,
2013-04-07 17:26:00,69.3,57.0,29.85,SSE,157,7.0,17.0,65,0.00,,SCT085,0.00,VWS V14.01,2013-04-07 22:26:00,
2013-04-07 17:36:00,69.1,56.0,29.85,SSE,157,11.0,18.0,63,0.00,,CLR,0.00,VWS V14.01,2013-04-07 22:36:00,
2013-04-07 17:46:00,68.9,56.2,29.85,SE,144,11.0,17.0,64,0.00,,CLR,0.00,VWS V14.01,2013-04-07 22:46:00,
2013-04-07 17:56:00,68.8,56.1,29.85,South,170,9.0,13.0,64,0.00,,CLR,0.00,VWS V14.01,2013-04-07 22:56:00,
2013-04-07 18:01:00,68.8,56.6,29.85,SSE,154,16.0,16.0,65,0.00,,CLR,0.00,VWS V14.01,2013-04-07 23:01:00,
2013-04-07 18:06:00,68.8,56.6,29.85,South,182,12.0,16.0,65,0.00,,CLR,0.00,VWS V14.01,2013-04-07 23:06:00,
2013-04-07 18:16:00,68.3,55.7,29.85,SSE,167,15.0,16.0,64,0.00,,CLR,0.00,VWS V14.01,2013-04-07 23:16:00,
2013-04-07 18:21:00,68.3,55.7,29.85,SSE,156,8.0,18.0,64,0.00,,CLR,0.00,VWS V14.01,2013-04-07 23:21:00,
2013-04-07 18:26:00,68.1,55.9,29.85,SSE,157,12.0,14.0,65,0.00,,CLR,0.00,VWS V14.01,2013-04-07 23:26:00,
2013-04-07 18:36:00,67.8,55.6,29.84,SE,145,9.0,14.0,65,0.00,,FEW033,0.00,VWS V14.01,2013-04-07 23:36:00,
2013-04-07 18:46:00,67.4,55.7,29.85,SSW,202,11.0,13.0,66,0.00,,FEW033,0.00,VWS V14.01,2013-04-07 23:46:00,
2013-04-07 18:51:00,67.3,55.6,29.85,SSE,159,7.0,15.0,66,0.00,,FEW033,0.00,VWS V14.01,2013-04-07 23:51:00,
2013-04-07 18:56:00,67.1,55.4,29.85,SSE,154,8.0,13.0,66,0.00,,FEW033,0.00,VWS V14.01,2013-04-07 23:56:00,
2013-04-07 19:06:00,66.6,55.7,29.84,SE,140,8.0,11.0,68,0.00,,FEW033,0.00,VWS V14.01,2013-04-08 00:06:00,
2013-04-07 19:11:00,66.4,55.5,29.84,SSE,149,11.0,11.0,68,0.00,,FEW033,0.00,VWS V14.01,2013-04-08 00:11:00,
2013-04-07 19:21:00,66.0,55.5,29.84,South,173,9.0,12.0,69,0.00,,BKN031,0.00,VWS V14.01,2013-04-08 00:21:00,
2013-04-07 19:26:00,65.8,55.4,29.84,SSE,150,8.0,10.0,69,0.00,,BKN031,0.00,VWS V14.01,2013-04-08 00:26:00,
2013-04-07 19:31:00,65.6,55.6,29.83,SSE,151,5.0,10.0,70,0.00,,BKN031,0.00,VWS V14.01,2013-04-08 00:31:00,
2013-04-07 19:41:00,65.3,55.3,29.83,SSE,168,6.0,11.0,70,0.00,,BKN031,0.00,VWS V14.01,2013-04-08 00:41:00,
2013-04-07 19:51:00,65.0,55.0,29.83,SSE,158,8.0,9.0,70,0.00,,BKN031,0.00,VWS V14.01,2013-04-08 00:51:00,
2013-04-07 19:56:00,64.8,54.8,29.83,SE,146,8.0,12.0,70,0.00,,BKN031,0.00,VWS V14.01,2013-04-08 00:56:00,
2013-04-07 20:01:00,64.7,54.7,29.83,SSE,155,6.0,10.0,70,0.00,,BKN031,0.00,VWS V14.01,2013-04-08 01:01:00,
2013-04-07 20:11:00,64.5,54.5,29.83,SSE,155,6.0,10.0,70,0.00,,BKN031,0.00,VWS V14.01,2013-04-08 01:11:00,
2013-04-07 20:16:00,64.2,54.2,29.83,SSE,161,5.0,9.0,70,0.00,,BKN031,0.00,VWS V14.01,2013-04-08 01:16:00,
2013-04-07 20:26:00,63.9,54.3,29.83,SSE,158,6.0,10.0,71,0.00,,BKN031,0.00,VWS V14.01,2013-04-08 01:26:00,
2013-04-07 20:31:00,63.5,53.9,29.83,South,172,11.0,11.0,71,0.00,,BKN031,0.00,VWS V14.01,2013-04-08 01:31:00,
2013-04-07 20:36:00,63.2,54.0,29.83,South,171,5.0,11.0,72,0.00,,FEW041,0.00,VWS V14.01,2013-04-08 01:36:00,
2013-04-07 20:46:00,62.9,54.1,29.84,SSE,162,6.0,9.0,73,0.00,,FEW041,0.00,VWS V14.01,2013-04-08 01:46:00,
2013-04-07 20:51:00,62.6,53.8,29.84,SSE,160,8.0,9.0,73,0.00,,FEW041,0.00,VWS V14.01,2013-04-08 01:51:00,
2013-04-07 20:56:00,62.4,54.0,29.84,SSE,153,9.0,9.0,74,0.00,,FEW041,0.00,VWS V14.01,2013-04-08 01:56:00,
2013-04-07 21:06:00,62.3,53.9,29.85,SSE,152,7.0,10.0,74,0.00,,FEW041,0.00,VWS V14.01,2013-04-08 02:06:00,
2013-04-07 21:11:00,62.1,53.7,29.85,SSE,159,6.0,8.0,74,0.00,,FEW041,0.00,VWS V14.01,2013-04-08 02:11:00,
2013-04-07 21:21:00,61.6,53.6,29.85,SSE,161,3.0,7.0,75,0.00,,FEW041,0.00,VWS V14.01,2013-04-08 02:21:00,
2013-04-07 21:31:00,61.2,53.6,29.85,South,169,5.0,7.0,76,0.00,,FEW041,0.00,VWS V14.01,2013-04-08 02:31:00,
2013-04-07 21:41:00,60.9,53.3,29.85,SSE,158,5.0,7.0,76,0.00,,CLR,0.00,VWS V14.01,2013-04-08 02:41:00,
2013-04-07 21:51:00,60.5,52.9,29.85,South,169,2.0,6.0,76,0.00,,CLR,0.00,VWS V14.01,2013-04-08 02:51:00,
2013-04-07 21:56:00,60.5,52.9,29.85,SSE,161,5.0,7.0,76,0.00,,CLR,0.00,VWS V14.01,2013-04-08 02:56:00,
2013-04-07 22:06:00,60.2,53.0,29.85,SSE,162,4.0,6.0,77,0.00,,CLR,0.00,VWS V14.01,2013-04-08 03:06:00,
2013-04-07 22:16:00,59.9,52.7,29.84,SSE,161,5.0,6.0,77,0.00,,CLR,0.00,VWS V14.01,2013-04-08 03:16:00,
2013-04-07 22:21:00,59.9,52.7,29.84,SSE,156,4.0,6.0,77,0.00,,CLR,0.00,VWS V14.01,2013-04-08 03:21:00,
2013-04-07 22:31:00,59.9,52.7,29.83,SE,144,4.0,7.0,77,0.00,,CLR,0.00,VWS V14.01,2013-04-08 03:31:00,
2013-04-07 22:41:00,59.8,52.6,29.83,SE,146,2.0,7.0,77,0.00,,CLR,0.00,VWS V14.01,2013-04-08 03:41:00,
2013-04-07 22:46:00,59.5,52.6,29.84,SE,145,0.0,5.0,78,0.00,,CLR,0.00,VWS V14.01,2013-04-08 03:46:00,
2013-04-07 23:01:00,58.9,52.4,29.83,SE,146,1.0,4.0,79,0.00,,CLR,0.00,VWS V14.01,2013-04-08 04:01:00,
2013-04-07 23:11:00,58.6,52.1,29.83,SE,146,1.0,3.0,79,0.00,,CLR,0.00,VWS V14.01,2013-04-08 04:11:00,
2013-04-07 23:16:00,58.4,52.3,29.83,SE,146,1.0,3.0,80,0.00,,CLR,0.00,VWS V14.01,2013-04-08 04:16:00,
2013-04-07 23:21:00,58.3,52.2,29.83,SE,146,0.0,4.0,80,0.00,,CLR,0.00,VWS V14.01,2013-04-08 04:21:00,
2013-04-07 23:26:00,58.1,52.0,29.83,SE,146,0.0,2.0,80,0.00,,CLR,0.00,VWS V14.01,2013-04-08 04:26:00,
2013-04-07 23:31:00,58.1,52.3,29.83,SE,146,0.0,0.0,81,0.00,,CLR,0.00,VWS V14.01,2013-04-08 04:31:00,
2013-04-07 23:36:00,58.0,52.2,29.83,SE,146,1.0,3.0,81,0.00,,CLR,0.00,VWS V14.01,2013-04-08 04:36:00,
2013-04-07 23:41:00,58.0,52.2,29.83,SE,146,2.0,3.0,81,0.00,,CLR,0.00,VWS V14.01,2013-04-08 04:41:00,
2013-04-07 23:46:00,58.0,52.2,29.83,SE,146,2.0,2.0,81,0.00,,CLR,0.00,VWS V14.01,2013-04-08 04:46:00,
2013-04-07 23:56:00,58.0,52.2,29.83,SE,146,1.0,3.0,81,0.00,,CLR,0.00,VWS V14.01,2013-04-08 04:56:00,